Weather in Epimakhovo

Russia / Pskov Oblast     56°18′10″N   28°33′08″E
temp.,
°C
wind,
m/s
gust,
m/s
humid.,
%
clouds,
%
prec.,
mm/h
press.,
hPa
HPBL,
m
27 october, wed
wed2700:00+5sw41179100 0.0 1014438
03:00+5sw41182100 0.1 1013514
06:00+6wsw41195100 1.7 1012654
09:00+8w4108547 1.8 1013915
12:00+9w597292 0.0 10151103
15:00+9w5970100 0.0 10151002
18:00+8sw51181100 0.0 1014795
21:00+8ssw61490100 1.0 1011832
28 october, thu
thu2800:00+10wsw71692100 3.8 10091168
03:00+11w61492100 4.8 10091092
06:00+11w61295100 0.2 1010984
09:00+11wnw5118745 0.6 1013865
12:00+12nw510734 0.1 10161052
15:00+10nnw477116 0.1 1019820
18:00+7n1186100 0.0 102210
21:00+7se1187100 0.0 102410
29 october, fri
fri2900:00+6s249066 0.0 102585
03:00+7s3990100 0.0 1025241
06:00+8s31093100 0.0 1025285
09:00+9ssw3895100 0.0 1025418
12:00+11ssw3889100 0.0 1025548
15:00+13ssw498283 0.0 1025719
18:00+11s4119128 0.0 1025370
21:00+9s4139477 0.0 1025411
30 october, sat
sat3000:00+8s41394100 0.0 1025424
03:00+7s4139146 0.0 1024413
06:00+6s4138962 0.0 1024372
09:00+6s4148766 0.0 1023402
12:00+10s5157391 0.0 1022553
15:00+12s5136951 0.0 1021742
18:00+10s514789 0.0 1020582
21:00+9s515845 0.0 1021613
31 october, sun
sun3100:00+8ssw513894 0.0 1021472
03:00+7s411925 0.0 1021312
06:00+6s399493 0.0 1021230
09:00+6s3893100 0.0 1021227
12:00+10s48755 0.0 1020346
15:00+11s4107079 0.0 1018498
18:00+9sse41280100 0.0 1017452
21:00+9s51481100 0.0 1016552